Lapse_Rate
4.2 4.7 5.2 5.4 5.6 5.6 5.5 5.4 5.3 5.5 5.8 6.1 6.4 6.5 6.4 6.5 6.6 6.7 6.7 6.7 6.5 6.3 5.5 4.6 6.0 6.1 6.7 7.0 6.8 6.8 6.7 6.6 6.6 6.4 6.4 6.4 6.5 6.6 6.5 6.4 6.4 6.4 6.4
4.2 4.3 4.7 4.8 4.7 4.8 5.2 5.4 5.3 5.1 5.0 5.2 5.7 5.9 6.2 6.1 6.2 6.4 6.4 6.6 6.7 6.5 6.4 5.8 5.2 5.6 6.3 6.5 7.1 6.7 6.9 7.0 6.9 6.7 6.6 6.5 6.4 6.5 6.8 6.5 6.3 6.4 6.5
3.9 3.8 3.7 3.7 4.4 4.7 4.7 4.9 5.0 5.3 5.0 4.8 4.8 5.2 5.3 5.5 5.6 5.7 5.9 5.8 6.3 6.5 6.2 5.9 5.9 6.1 5.3 6.2 6.5 6.6 6.7 6.8 7.1 7.0 6.8 6.5 6.7 6.4 6.6 7.0 6.8 6.5 6.5
4.2 4.1 4.2 4.0 3.9 3.7 4.7 4.7 4.8 4.7 5.0 4.9 4.7 4.5 4.8 5.1 5.1 5.2 5.3 5.4 5.5 5.9 6.2 6.0 5.9 5.8 5.3 5.3 6.1 6.3 6.7 6.8 6.7 6.9 7.1 7.0 6.7 6.6 6.5 6.6 6.7 6.2 6.6
4.5 4.3 4.1 4.1 4.0 3.9 4.5 4.9 4.8 4.6 4.8 5.0 4.9 4.9 4.8 4.6 4.7 4.9 4.9 4.8 5.0 5.3 5.6 5.6 5.8 5.9 5.7 5.5 5.3 5.7 6.1 6.5 6.9 6.5 6.8 7.1 7.1 6.6 6.7 6.3 6.3 6.6 6.8
4.7 4.5 4.3 4.4 4.3 4.1 4.0 4.3 4.5 4.7 5.0 5.1 5.3 5.3 5.2 5.1 4.9 4.8 4.9 5.0 4.8 4.9 5.1 5.2 5.3 5.8 5.9 5.9 5.6 5.4 5.3 5.4 6.0 6.5 6.8 6.6 7.0 7.4 6.9 7.0 6.9 6.5 7.1
5.1 5.0 4.5 4.4 4.3 4.2 4.0 4.2 4.5 4.9 5.1 5.3 5.2 5.3 5.4 5.4 5.2 5.0 5.0 5.0 5.0 4.9 4.8 4.9 5.0 5.4 5.5 5.4 5.8 5.5 5.5 5.3 4.9 5.6 6.1 6.4 6.4 6.7 7.0 7.0 7.2 6.9 6.8
5.2 4.8 4.6 4.5 4.7 4.2 4.0 4.2 4.8 5.2 5.3 5.3 5.1 5.2 5.3 5.4 5.5 5.1 5.0 5.0 5.0 5.0 4.9 5.1 5.0 5.1 5.2 5.4 5.5 5.7 5.6 5.7 5.7 5.3 5.4 5.6 5.8 6.2 6.5 6.6 7.0 6.9 7.5
5.2 5.0 5.1 4.7 5.0 4.4 4.2 4.6 4.9 5.1 5.1 5.1 6.1 6.7 6.8 6.8 7.0 6.7 5.7 5.1 5.0 5.0 4.9 4.9 5.4 5.2 5.3 5.1 5.2 5.5 5.8 5.3 5.3 5.5 5.0 4.6 5.3 5.1 6.2 6.4 6.6 6.4 6.7
5.5 5.4 5.3 4.8 4.7 4.6 4.5 4.9 5.2 5.4 5.3 5.4 6.3 7.0 7.3 7.2 7.1 7.2 7.1 6.4 5.8 5.7 5.5 5.2 5.3 5.6 5.7 5.5 5.1 5.2 5.3 5.3 5.2 5.4 5.4 6.0 5.5 4.6 5.9 6.1 6.2 6.4 6.3
5.6 5.3 5.2 5.2 5.1 4.7 4.6 4.8 5.4 5.7 5.6 5.8 6.4 6.9 7.1 7.1 7.1 7.2 7.3 7.3 6.9 6.4 6.4 6.1 5.8 5.8 5.9 6.0 5.9 5.6 5.5 5.1 5.4 5.3 5.4 5.1 5.7 6.3 5.5 5.7 5.9 6.1 6.2
5.1 5.1 5.0 4.9 4.9 4.8 4.7 4.9 5.3 5.7 5.9 5.9 6.1 6.7 7.0 7.1 7.0 7.0 7.1 7.2 7.2 7.1 7.0 6.9 6.5 6.4 6.4 6.1 6.2 6.3 6.3 6.5 5.7 5.5 5.3 5.5 4.8 6.4 5.3 5.6 5.6 5.6 6.1
5.2 5.1 5.0 5.0 4.8 4.8 4.9 5.0 4.8 5.2 5.8 5.9 6.0 6.2 6.6 6.7 7.0 7.0 7.0 7.0 7.1 7.2 7.1 7.2 7.3 6.9 7.0 6.6 6.1 6.2 6.2 6.6 7.0 6.4 5.9 5.6 5.5 5.2 5.5 5.6 5.4 5.4 5.4
5.2 5.1 5.0 4.9 4.8 4.7 4.7 4.6 4.6 4.7 5.5 5.9 6.0 6.1 6.2 6.5 6.7 6.7 6.8 6.9 6.9 7.0 7.0 7.1 7.3 7.3 7.2 7.0 6.7 6.5 6.3 6.5 6.9 7.2 6.9 6.5 5.9 5.7 5.4 5.7 5.4 4.9 5.4
5.2 5.2 5.1 5.0 4.9 4.7 4.7 4.7 4.8 4.8 5.3 5.8 5.9 6.0 6.2 6.3 6.4 6.6 6.6 6.6 6.6 6.7 7.0 6.9 6.9 7.1 7.3 7.4 7.1 6.8 6.5 6.4 6.5 6.7 7.2 7.2 6.6 5.4 5.0 4.5 5.0 5.4 5.4
5.2 5.0 4.9 4.9 4.9 4.8 4.6 4.7 4.6 4.9 5.6 5.7 5.8 5.9 6.0 6.3 6.3 6.4 6.6 6.6 6.5 6.4 6.5 6.6 6.8 6.7 6.8 7.0 7.1 7.0 7.0 6.7 6.3 6.3 6.7 7.2 7.3 6.0 5.6 4.7 5.1 4.8 5.6
5.0 4.9 4.9 4.8 4.8 4.7 4.9 5.0 4.8 4.6 5.2 5.6 5.7 5.8 5.8 5.9 6.2 6.3 6.3 6.5 6.5 6.5 6.4 6.5 6.6 6.6 6.6 6.8 6.7 6.6 6.7 6.9 6.8 6.7 6.2 6.5 6.9 7.1 6.6 5.8 5.4 5.3 5.5
4.8 4.9 4.9 4.7 4.8 4.8 5.0 4.9 5.1 5.2 5.0 5.2 5.5 5.9 6.0 6.0 5.9 6.2 6.4 6.4 6.4 6.5 6.5 6.5 6.5 6.6 6.6 6.7 6.8 6.8 6.6 6.6 6.5 6.7 6.5 6.5 6.3 6.7 6.8 6.7 6.4 6.5 6.4
4.7 4.8 4.8 4.6 4.5 4.6 4.7 4.9 5.1 5.3 5.5 5.5 5.3 6.0 6.0 6.2 6.2 6.4 6.5 6.5 6.4 6.4 6.5 6.6 6.6 6.5 6.6 6.8 7.0 7.2 7.0 6.9 7.1 6.9 6.5 6.5 6.5 6.4 6.4 6.4 6.7 6.7 7.1
4.8 4.8 4.8 4.9 5.1 5.1 5.0 4.9 5.4 5.2 5.6 5.6 6.1 6.3 6.2 6.3 6.4 6.5 6.7 6.6 6.5 6.7 6.7 6.7 6.8 6.9 6.9 7.0 7.3 7.3 7.5 7.5 7.3 7.3 7.3 6.9 6.6 6.3 6.3 6.4 6.3 6.7 6.8
5.0 5.0 5.0 5.1 5.2 5.4 5.4 5.2 5.3 5.6 5.7 5.7 6.5 6.6 6.5 6.6 6.6 6.6 6.8 7.0 7.0 7.0 7.1 7.2 7.2 7.1 7.2 7.2 7.2 7.1 7.2 7.3 7.4 7.4 7.4 7.4 7.5 6.8 6.3 6.2 6.4 6.3 6.3
4.5 4.6 4.7 4.8 5.1 5.3 5.8 5.8 5.3 6.3 6.3 6.0 6.5 6.9 6.8 6.8 6.8 6.8 7.0 7.2 7.3 7.3 7.4 7.5 7.6 7.6 7.6 7.6 7.4 7.2 7.1 7.0 6.9 7.1 7.1 7.2 7.2 7.4 7.3 6.7 6.2 6.2 6.4
4.4 4.5 4.7 5.0 5.2 5.4 5.5 5.9 5.6 6.2 6.6 6.8 6.9 7.0 7.0 7.1 7.2 7.2 7.4 7.5 7.5 7.5 7.6 7.7 7.8 7.8 7.8 7.7 7.5 7.5 7.4 7.1 6.9 6.8 6.8 7.0 7.0 7.1 7.2 7.2 7.1 6.5 6.2
4.3 4.4 4.7 5.1 5.3 5.6 5.5 6.1 5.5 6.5 6.5 7.1 7.3 7.2 7.3 7.4 7.4 7.5 7.6 7.7 7.8 7.7 7.8 7.8 7.7 7.9 8.0 7.9 7.8 7.6 7.5 7.4 7.2 7.0 6.9 7.0 7.0 6.9 6.8 7.0 7.1 7.1 6.8
4.6 4.9 5.1 5.3 5.4 5.5 5.7 6.0 6.5 6.8 7.3 7.2 7.4 7.3 7.5 7.6 7.6 7.8 7.9 7.9 7.9 7.9 8.0 8.1 7.9 8.0 8.2 8.0 7.9 7.8 7.7 7.5 7.4 7.3 7.2 7.0 7.1 7.1 6.9 6.7 6.7 6.8 6.9
5.2 5.6 5.7 5.7 5.7 5.8 6.1 6.5 7.0 7.1 7.5 7.8 7.5 7.2 7.5 7.6 7.7 7.8 8.0 7.9 7.9 8.0 8.0 8.0 8.0 8.1 8.1 8.0 8.1 8.2 7.9 7.8 7.6 7.3 7.1 7.1 7.1 7.2 7.0 6.7 6.5 6.5 6.6
Wind_Speed
12 12 11 11 12 11 13 13 14 14 11 11 10 10 10 9 6 13 18 17 21 22 17 10 20 17 7 5 6 5 7 4 5 3 4 3 6 7 5 8 9 12 18
11 11 11 11 9 11 11 12 13 13 12 10 9 9 9 8 8 12 13 17 17 21 20 10 10 28 6 8 5 5 4 6 5 5 3 3 4 5 7 6 6 8 15
10 11 11 8 8 11 11 12 12 11 10 14 12 11 10 11 9 9 5 13 17 16 15 18 13 10 12 9 5 8 6 6 6 8 4 3 5 4 5 10 10 8 5
8 9 10 11 7 9 8 10 10 9 10 14 10 12 10 10 9 9 9 10 15 20 14 16 16 9 8 15 12 7 7 7 8 4 8 8 2 2 3 3 11 10 7
9 11 11 10 10 8 8 9 10 9 9 8 10 9 10 9 8 8 10 11 13 16 18 18 18 12 7 9 11 14 9 8 9 8 4 10 9 6 5 6 3 6 7
11 11 11 11 9 8 7 7 9 9 8 9 9 10 11 11 10 10 8 8 8 11 15 17 18 14 13 11 10 9 10 15 13 11 11 7 7 8 4 4 8 5 5
9 9 9 10 10 8 6 7 10 10 8 9 9 9 10 10 11 10 9 10 7 7 10 18 13 11 14 15 13 13 10 9 6 10 9 9 9 5 8 8 5 7 5
7 9 9 7 9 7 5 7 8 10 9 9 9 8 9 8 8 9 8 8 8 8 14 16 19 21 20 13 13 7 8 9 9 18 19 15 13 6 6 3 4 3 6
6 8 8 8 7 7 5 5 6 9 9 9 6 7 9 9 9 11 7 7 9 11 14 13 11 18 20 19 11 9 11 10 12 8 14 13 12 11 7 5 6 5 9
6 7 7 6 4 6 5 4 4 6 7 7 6 7 7 9 8 9 9 9 10 12 13 10 10 11 15 17 12 9 10 11 9 8 13 11 13 15 11 9 10 9 7
6 6 6 6 7 6 5 3 4 6 6 7 6 6 6 7 7 8 9 9 12 12 9 9 9 11 10 9 10 12 12 11 11 10 12 12 14 9 11 10 8 9 9
6 7 6 5 6 7 6 6 4 5 6 7 7 6 6 6 7 8 9 13 10 13 11 8 8 10 11 7 8 10 12 12 11 10 10 11 9 10 12 6 10 11 12
7 7 6 6 7 7 7 8 5 5 5 7 7 6 6 6 7 7 8 11 10 9 11 9 6 8 9 7 8 10 11 12 12 12 10 11 11 8 8 10 9 8 9
9 8 6 4 5 7 7 7 5 3 4 6 7 7 6 6 7 6 7 8 10 9 9 9 9 5 5 6 9 11 12 12 12 11 9 10 12 12 9 6 8 8 9
11 10 8 5 5 6 6 8 7 4 4 6 7 7 6 6 6 6 6 6 7 9 8 10 8 9 7 3 6 8 11 13 12 9 11 9 10 5 8 7 10 10 8
12 11 10 10 8 8 7 9 7 5 3 6 6 7 6 7 7 7 6 7 6 7 7 9 9 8 7 4 6 8 10 12 11 11 9 11 10 10 9 5 9 9 9
12 14 11 9 6 5 6 6 8 5 5 6 8 7 6 7 7 7 8 7 8 7 6 7 9 8 6 5 6 9 8 10 10 11 9 9 8 8 9 10 9 9 10
13 11 8 7 9 9 7 6 7 6 6 8 7 7 5 7 8 8 8 6 7 8 7 7 6 8 8 2 5 10 10 9 12 10 12 12 12 11 13 13 13 12 10
8 8 9 9 9 10 10 8 9 7 7 8 7 4 6 8 8 8 7 6 7 7 6 7 8 9 10 0 4 8 10 11 12 11 12 13 11 13 18 16 16 15 13
16 16 15 15 13 10 10 10 8 10 9 8 2 3 6 8 9 7 6 6 6 8 7 8 6 8 10 7 3 8 7 12 11 13 12 13 10 15 16 14 16 16 15
18 18 18 17 17 15 12 11 12 11 10 8 3 4 6 8 8 7 5 6 7 7 6 7 5 5 8 10 10 10 9 9 10 10 12 12 21 22 22 17 14 14 15
19 18 17 16 16 15 15 13 11 9 8 4 3 5 7 6 7 7 6 6 8 6 6 6 6 4 5 6 6 9 11 12 7 10 12 14 23 23 21 20 16 15 11
16 16 15 17 17 15 12 9 3 7 8 7 5 5 7 7 7 6 6 6 5 5 5 5 5 4 5 5 8 9 8 10 10 10 13 18 22 23 17 16 16 12 6
16 15 17 16 17 16 14 15 7 8 8 5 6 4 6 6 6 7 5 4 5 5 5 5 5 6 5 5 5 5 7 11 9 10 11 13 15 16 12 9 8 6 7
15 14 15 15 17 17 15 4 5 1 10 5 5 5 5 6 5 6 5 5 6 5 7 6 7 7 8 7 8 10 9 9 11 12 10 9 9 10 9 8 8 6 5
20 20 22 21 19 14 12 10 6 8 3 4 3 5 4 4 5 5 7 8 7 10 12 13 8 7 12 13 17 19 18 18 17 10 10 11 9 8 8 8 9 7 6
Wind_Direction
41 34 46 34 39 28 18 19 11 11 15 2 352 354 349 333 355 37 10 5 349 357 328 1 317 268 258 234 226 201 213 229 220 269 289 260 203 195 203 222 201 193 201
26 27 27 28 34 29 21 17 12 16 20 360 356 357 332 347 347 17 17 357 358 360 359 353 293 292 252 266 246 244 211 219 232 204 241 251 281 221 208 212 227 209 190
16 8 4 26 12 36 18 12 8 22 24 4 357 349 352 355 1 345 1 3 358 353 350 347 314 322 321 269 242 244 234 228 214 218 180 212 230 225 199 209 214 218 196
11 2 352 345 356 51 22 10 0 17 24 9 3 356 1 355 345 352 356 342 4 354 350 347 359 338 287 291 261 260 219 238 236 221 221 236 177 203 322 234 209 207 215
8 359 346 336 336 52 32 11 356 8 24 13 5 360 357 345 354 357 347 8 348 352 343 354 349 340 345 330 312 266 296 239 232 230 223 219 231 229 194 271 245 213 220
10 2 355 345 336 40 33 18 359 355 23 14 4 360 356 341 349 1 355 354 3 349 342 343 344 337 336 345 348 242 275 290 260 227 230 239 202 209 198 209 241 214 234
20 357 359 360 11 22 11 18 359 350 18 16 4 359 356 347 344 357 352 349 355 356 339 347 339 336 338 335 345 339 291 270 290 328 300 249 253 224 213 207 217 234 245
16 357 4 358 3 358 12 32 358 352 9 13 1 356 356 352 345 348 345 351 355 344 3 342 348 341 332 326 342 342 342 310 265 287 286 291 272 252 246 239 187 243 227
9 5 346 46 348 326 7 36 357 358 6 5 357 0 353 350 344 341 346 349 349 339 344 345 356 341 340 343 1 359 347 357 352 307 252 242 296 248 233 227 252 221 240
354 357 353 360 312 353 348 27 355 360 2 357 353 3 348 346 340 337 345 347 345 343 335 338 11 355 341 350 358 3 355 356 342 343 333 274 250 277 276 257 256 265 267
329 332 342 339 326 332 342 353 0 351 358 345 353 358 345 343 340 337 340 343 338 343 337 343 359 352 352 16 357 351 350 348 345 320 329 337 334 271 269 263 261 256 249
311 321 321 318 313 317 328 332 341 336 2 339 348 343 345 341 337 336 338 340 336 341 336 351 351 347 349 13 2 349 346 341 338 324 330 332 333 346 317 334 298 284 273
293 308 315 325 324 324 329 323 329 327 349 334 337 336 341 337 328 332 337 335 332 334 339 343 353 353 354 359 356 354 348 338 329 339 341 325 320 346 3 338 305 308 313
291 280 284 299 320 312 306 305 308 323 340 334 325 327 326 329 321 330 333 327 328 333 338 342 339 346 6 5 352 351 346 334 326 336 347 344 352 344 353 359 351 339 306
278 290 294 296 290 303 313 319 310 355 322 329 313 315 314 318 321 325 319 321 323 334 342 337 331 341 332 44 5 351 343 331 324 339 337 347 332 351 55 15 350 333 333
291 297 297 300 297 306 320 317 314 293 335 296 305 302 313 320 324 318 318 318 330 326 337 329 326 338 347 76 38 9 339 329 328 331 341 341 325 6 27 24 329 305 313
295 293 286 298 316 318 305 305 306 308 290 295 288 303 317 322 316 317 318 320 327 319 323 320 322 330 333 66 25 355 352 336 324 331 336 335 342 357 354 342 332 314 273
288 288 293 304 294 283 274 265 271 276 286 285 288 295 327 314 310 311 309 327 318 316 316 314 324 334 341 94 360 335 356 334 332 341 348 331 329 38 8 347 332 323 311
330 315 305 283 281 276 276 272 274 269 268 281 293 322 319 298 299 299 311 309 307 308 304 318 337 339 334 264 347 353 352 334 331 339 335 325 332 13 2 346 331 320 314
317 313 306 301 291 265 265 258 280 279 279 274 276 311 285 288 290 295 297 300 289 299 312 319 334 332 326 322 357 4 342 326 324 323 322 314 342 342 341 330 323 313 313
305 304 305 300 295 296 263 243 243 251 257 255 179 251 273 278 278 281 291 293 304 300 305 311 307 318 315 332 332 2 342 321 314 313 318 317 320 321 322 322 312 302 305
302 299 296 292 293 289 293 264 241 245 292 262 249 259 271 275 289 290 289 305 293 300 304 297 302 298 301 288 316 321 314 311 310 309 311 310 313 316 314 316 305 293 294
299 302 303 303 300 289 295 281 258 250 237 260 249 253 274 283 288 285 294 290 296 288 287 290 298 306 314 314 307 307 317 330 312 303 298 303 311 309 304 298 305 304 294
307 310 304 296 297 300 296 282 209 249 257 250 258 271 275 277 282 276 270 285 281 284 285 290 286 291 298 302 307 306 313 307 304 297 303 301 293 293 293 297 300 298 296
311 314 312 312 310 304 300 318 262 282 265 253 263 281 274 276 283 290 275 275 276 268 286 284 285 289 290 284 271 285 301 302 296 298 298 298 297 298 296 297 301 297 287
1 354 342 329 303 319 335 347 342 296 296 280 337 287 288 285 282 292 292 272 279 281 271 272 269 268 253 266 269 274 276 284 283 294 295 292 285 281 285 294 299 295 288